Back to catalog

OPS 9323

IDSCS 10

AliveMilitaryMEO
NORAD 2650·PAYLOAD·🇺🇸 United States

Launched Jan 18, 1967 from Cape Canaveral Space Force Station

Loading…

Next Passes (next 24 hours)

TLE

FreshSource: Space-Track

Epoch: Sep 12, 2026, 18:54 UTC

1 02650U 67003C   26255.78778541 -.00000080  00000-0  00000-0 0  9995
2 02650   8.4498  43.8862 0034394 117.1992  86.4181  1.08221556141398

Track OPS 9323 in real time with AllMySat

Download on the App Store